Year,Month,Day,Hour,Minute,Value (Times are PST for temperature in C)
2010,08,12,00,00,17.20
2010,08,12,00,01,17.20
2010,08,12,00,02,17.30
2010,08,12,00,03,17.20
2010,08,12,00,04,17.20
2010,08,12,00,05,17.20
2010,08,12,00,06,17.20
2010,08,12,00,07,17.20
2010,08,12,00,08,17.20
2010,08,12,00,09,17.20
2010,08,12,00,10,17.20
2010,08,12,00,11,17.20
2010,08,12,00,12,17.20
2010,08,12,00,13,17.20
2010,08,12,00,14,17.20
2010,08,12,00,15,17.20
2010,08,12,00,16,17.20
2010,08,12,00,17,17.20
2010,08,12,00,18,17.20
2010,08,12,00,19,17.20
2010,08,12,00,20,17.20
2010,08,12,00,21,17.20
2010,08,12,00,22,17.20
2010,08,12,00,23,17.20
2010,08,12,00,24,17.20
2010,08,12,00,25,17.20
2010,08,12,00,26,17.10
2010,08,12,00,27,17.10
2010,08,12,00,28,17.10
2010,08,12,00,29,17.00
2010,08,12,00,30,16.80
2010,08,12,00,31,16.70
2010,08,12,00,32,16.60
2010,08,12,00,33,16.50
2010,08,12,00,34,16.30
2010,08,12,00,35,16.20
2010,08,12,00,36,16.10
2010,08,12,00,37,16.00
2010,08,12,00,38,16.00
2010,08,12,00,39,15.90
2010,08,12,00,40,15.90
2010,08,12,00,41,15.80
2010,08,12,00,42,15.80
2010,08,12,00,43,15.80
2010,08,12,00,44,15.80
2010,08,12,00,45,15.70
2010,08,12,00,46,15.70
2010,08,12,00,47,15.70
2010,08,12,00,48,15.70
2010,08,12,00,49,15.70
2010,08,12,00,50,15.70
2010,08,12,00,51,15.70
2010,08,12,00,52,15.70
2010,08,12,00,53,15.70
2010,08,12,00,54,15.70
2010,08,12,00,55,15.70
2010,08,12,00,56,15.70
2010,08,12,00,57,15.70
2010,08,12,00,58,15.70
2010,08,12,00,59,15.70
2010,08,12,01,00,15.70
2010,08,12,01,01,15.70
2010,08,12,01,02,15.70
2010,08,12,01,03,15.70
2010,08,12,01,04,15.70
2010,08,12,01,05,15.70
2010,08,12,01,06,15.70
2010,08,12,01,07,15.70
2010,08,12,01,08,15.70
2010,08,12,01,09,15.70
2010,08,12,01,10,15.70
2010,08,12,01,11,15.70
2010,08,12,01,12,15.70
2010,08,12,01,13,15.70
2010,08,12,01,14,15.70
2010,08,12,01,15,15.70
2010,08,12,01,16,15.70
2010,08,12,01,17,15.70
2010,08,12,01,18,15.70
2010,08,12,01,19,15.60
2010,08,12,01,20,15.60
2010,08,12,01,21,15.60
2010,08,12,01,22,15.60
2010,08,12,01,23,15.50
2010,08,12,01,24,15.50
2010,08,12,01,25,15.50
2010,08,12,01,26,15.40
2010,08,12,01,27,15.40
2010,08,12,01,28,15.40
2010,08,12,01,29,15.40
2010,08,12,01,30,15.40
2010,08,12,01,31,15.40
2010,08,12,01,32,15.30
2010,08,12,01,33,15.30
2010,08,12,01,34,15.30
2010,08,12,01,35,15.20
2010,08,12,01,36,15.20
2010,08,12,01,37,15.20
2010,08,12,01,38,15.20
2010,08,12,01,39,15.10
2010,08,12,01,40,15.10
2010,08,12,01,41,15.10
2010,08,12,01,42,15.00
2010,08,12,01,43,15.00
2010,08,12,01,44,15.00
2010,08,12,01,45,15.00
2010,08,12,01,46,15.00
2010,08,12,01,47,15.00
2010,08,12,01,48,15.00
2010,08,12,01,49,14.90
2010,08,12,01,50,14.80
2010,08,12,01,51,14.80
2010,08,12,01,52,14.70
2010,08,12,01,53,14.70
2010,08,12,01,54,14.70
2010,08,12,01,55,14.70
2010,08,12,01,56,14.60
2010,08,12,01,57,14.60
2010,08,12,01,58,14.60
2010,08,12,01,59,14.60
2010,08,12,02,00,14.60
2010,08,12,02,01,14.60
2010,08,12,02,02,14.60
2010,08,12,02,03,14.60
2010,08,12,02,04,14.60
2010,08,12,02,05,14.60
2010,08,12,02,06,14.70
2010,08,12,02,07,14.70
2010,08,12,02,08,14.70
2010,08,12,02,09,14.80
2010,08,12,02,10,14.80
2010,08,12,02,11,14.80
2010,08,12,02,12,14.80
2010,08,12,02,13,14.80
2010,08,12,02,14,14.80
2010,08,12,02,15,14.80
2010,08,12,02,16,14.80
2010,08,12,02,17,14.80
2010,08,12,02,18,14.90
2010,08,12,02,19,14.90
2010,08,12,02,20,14.90
2010,08,12,02,21,14.90
2010,08,12,02,22,14.90
2010,08,12,02,23,14.90
2010,08,12,02,24,14.90
2010,08,12,02,25,14.80
2010,08,12,02,26,14.80
2010,08,12,02,27,14.70
2010,08,12,02,28,14.70
2010,08,12,02,29,14.70
2010,08,12,02,30,14.70
2010,08,12,02,31,14.60
2010,08,12,02,32,14.60
2010,08,12,02,33,14.60
2010,08,12,02,34,14.60
2010,08,12,02,35,14.60
2010,08,12,02,36,14.50
2010,08,12,02,37,14.50
2010,08,12,02,38,14.50
2010,08,12,02,39,14.40
2010,08,12,02,40,14.40
2010,08,12,02,41,14.40
2010,08,12,02,42,14.40
2010,08,12,02,43,14.30
2010,08,12,02,44,14.30
2010,08,12,02,45,14.30
2010,08,12,02,46,14.20
2010,08,12,02,47,14.20
2010,08,12,02,48,14.20
2010,08,12,02,49,14.10
2010,08,12,02,50,14.10
2010,08,12,02,51,14.10
2010,08,12,02,52,14.10
2010,08,12,02,53,14.10
2010,08,12,02,54,14.10
2010,08,12,02,55,14.00
2010,08,12,02,56,14.00
2010,08,12,02,57,14.00
2010,08,12,02,58,14.00
2010,08,12,02,59,13.90
2010,08,12,03,00,13.90
2010,08,12,03,01,13.90
2010,08,12,03,02,13.90
2010,08,12,03,03,13.90
2010,08,12,03,04,13.90
2010,08,12,03,05,13.90
2010,08,12,03,06,13.80
2010,08,12,03,07,13.80
2010,08,12,03,08,13.80
2010,08,12,03,09,13.80
2010,08,12,03,10,13.80
2010,08,12,03,11,13.80
2010,08,12,03,12,13.70
2010,08,12,03,13,13.70
2010,08,12,03,14,13.70
2010,08,12,03,15,13.70
2010,08,12,03,16,13.60
2010,08,12,03,17,13.60
2010,08,12,03,18,13.60
2010,08,12,03,19,13.60
2010,08,12,03,20,13.60
2010,08,12,03,21,13.50
2010,08,12,03,22,13.50
2010,08,12,03,23,13.50
2010,08,12,03,24,13.50
2010,08,12,03,25,13.50
2010,08,12,03,26,13.50
2010,08,12,03,27,13.50
2010,08,12,03,28,13.50
2010,08,12,03,29,13.40
2010,08,12,03,30,13.50
2010,08,12,03,31,13.50
2010,08,12,03,32,13.50
2010,08,12,03,33,13.50
2010,08,12,03,34,13.60
2010,08,12,03,35,13.60
2010,08,12,03,36,13.60
2010,08,12,03,37,13.60
2010,08,12,03,38,13.60
2010,08,12,03,39,13.60
2010,08,12,03,40,13.60
2010,08,12,03,41,13.70
2010,08,12,03,42,13.70
2010,08,12,03,43,13.70
2010,08,12,03,44,13.70
2010,08,12,03,45,13.70
2010,08,12,03,46,13.80
2010,08,12,03,47,13.80
2010,08,12,03,48,13.80
2010,08,12,03,49,13.80
2010,08,12,03,50,13.80
2010,08,12,03,51,13.80
2010,08,12,03,52,13.80
2010,08,12,03,53,13.80
2010,08,12,03,54,13.80
2010,08,12,03,55,13.80
2010,08,12,03,56,13.70
2010,08,12,03,57,13.70
2010,08,12,03,58,13.70
2010,08,12,03,59,13.70
2010,08,12,04,00,13.60
2010,08,12,04,01,13.60
2010,08,12,04,02,13.60
2010,08,12,04,03,13.60
2010,08,12,04,04,13.60
2010,08,12,04,05,13.50
2010,08,12,04,06,13.50
2010,08,12,04,07,13.50
2010,08,12,04,08,13.50
2010,08,12,04,09,13.50
2010,08,12,04,10,13.50
2010,08,12,04,11,13.40
2010,08,12,04,12,13.40
2010,08,12,04,13,13.40
2010,08,12,04,14,13.40
2010,08,12,04,15,13.40
2010,08,12,04,16,13.40
2010,08,12,04,17,13.40
2010,08,12,04,18,13.30
2010,08,12,04,19,13.30
2010,08,12,04,20,13.30
2010,08,12,04,21,13.30
2010,08,12,04,22,13.30
2010,08,12,04,23,13.30
2010,08,12,04,24,13.30
2010,08,12,04,25,13.20
2010,08,12,04,26,13.20
2010,08,12,04,27,13.20
2010,08,12,04,28,13.20
2010,08,12,04,29,13.20
2010,08,12,04,30,13.20
2010,08,12,04,31,13.20
2010,08,12,04,32,13.20
2010,08,12,04,33,13.10
2010,08,12,04,34,13.10
2010,08,12,04,35,13.10
2010,08,12,04,36,13.10
2010,08,12,04,37,13.10
2010,08,12,04,38,13.10
2010,08,12,04,39,13.10
2010,08,12,04,40,13.10
2010,08,12,04,41,13.20
2010,08,12,04,42,13.20
2010,08,12,04,43,13.20
2010,08,12,04,44,13.20
2010,08,12,04,45,13.20
2010,08,12,04,46,13.20
2010,08,12,04,47,13.20
2010,08,12,04,48,13.10
2010,08,12,04,49,13.10
2010,08,12,04,50,13.10
2010,08,12,04,51,13.10
2010,08,12,04,52,13.10
2010,08,12,04,53,13.10
2010,08,12,04,54,13.10
2010,08,12,04,55,13.10
2010,08,12,04,56,13.10
2010,08,12,04,57,13.10
2010,08,12,04,58,13.10
2010,08,12,04,59,13.10
2010,08,12,05,00,13.10
2010,08,12,05,01,13.00
2010,08,12,05,02,13.00
2010,08,12,05,03,13.00
2010,08,12,05,04,13.00
2010,08,12,05,05,12.90
2010,08,12,05,06,12.90
2010,08,12,05,07,12.90
2010,08,12,05,08,12.90
2010,08,12,05,09,12.90
2010,08,12,05,10,12.90
2010,08,12,05,11,12.90
2010,08,12,05,12,12.90
2010,08,12,05,13,12.90
2010,08,12,05,14,12.90
2010,08,12,05,15,12.90
2010,08,12,05,16,12.80
2010,08,12,05,17,12.80
2010,08,12,05,18,12.80
2010,08,12,05,19,12.80
2010,08,12,05,20,12.80
2010,08,12,05,21,12.80
2010,08,12,05,22,12.80
2010,08,12,05,23,12.80
2010,08,12,05,24,12.70
2010,08,12,05,25,12.70
2010,08,12,05,26,12.70
2010,08,12,05,27,12.70
2010,08,12,05,28,12.70
2010,08,12,05,29,12.70
2010,08,12,05,30,12.70
2010,08,12,05,31,12.70
2010,08,12,05,32,12.70
2010,08,12,05,33,12.70
2010,08,12,05,34,12.70
2010,08,12,05,35,12.70
2010,08,12,05,36,12.70
2010,08,12,05,37,12.70
2010,08,12,05,38,12.70
2010,08,12,05,39,12.70
2010,08,12,05,40,12.70
2010,08,12,05,41,12.70
2010,08,12,05,42,12.70
2010,08,12,05,43,12.70
2010,08,12,05,44,12.80
2010,08,12,05,45,12.80
2010,08,12,05,46,12.80
2010,08,12,05,47,12.80
2010,08,12,05,48,12.80
2010,08,12,05,49,12.80
2010,08,12,05,50,12.80
2010,08,12,05,51,12.80
2010,08,12,05,52,12.80
2010,08,12,05,53,12.80
2010,08,12,05,54,12.80
2010,08,12,05,55,12.80
2010,08,12,05,56,12.80
2010,08,12,05,57,12.80
2010,08,12,05,58,12.80
2010,08,12,05,59,12.80
2010,08,12,06,00,12.80
2010,08,12,06,01,12.80
2010,08,12,06,02,12.80
2010,08,12,06,03,12.80
2010,08,12,06,04,12.80
2010,08,12,06,05,12.70
2010,08,12,06,06,12.70
2010,08,12,06,07,12.70
2010,08,12,06,08,12.70
2010,08,12,06,09,12.70
2010,08,12,06,10,12.70
2010,08,12,06,11,12.70
2010,08,12,06,12,12.70
2010,08,12,06,13,12.70
2010,08,12,06,14,12.70
2010,08,12,06,15,12.70
2010,08,12,06,16,12.70
2010,08,12,06,17,12.70
2010,08,12,06,18,12.70
2010,08,12,06,19,12.80
2010,08,12,06,20,12.80
2010,08,12,06,21,12.80
2010,08,12,06,22,12.80
2010,08,12,06,23,12.80
2010,08,12,06,24,12.80
2010,08,12,06,25,12.70
2010,08,12,06,26,12.70
2010,08,12,06,27,12.70
2010,08,12,06,28,12.70
2010,08,12,06,29,12.70
2010,08,12,06,30,12.70
2010,08,12,06,31,12.70
2010,08,12,06,32,12.70
2010,08,12,06,33,12.70
2010,08,12,06,34,12.70
2010,08,12,06,35,12.70
2010,08,12,06,36,12.70
2010,08,12,06,37,12.70
2010,08,12,06,38,12.70
2010,08,12,06,39,12.70
2010,08,12,06,40,12.70
2010,08,12,06,41,12.70
2010,08,12,06,42,12.70
2010,08,12,06,43,12.70
2010,08,12,06,44,12.70
2010,08,12,06,45,12.70
2010,08,12,06,46,12.80
2010,08,12,06,47,12.80
2010,08,12,06,48,12.80
2010,08,12,06,49,12.90
2010,08,12,06,50,12.90
2010,08,12,06,51,13.00
2010,08,12,06,52,13.00
2010,08,12,06,53,13.10
2010,08,12,06,54,13.10
2010,08,12,06,55,13.10
2010,08,12,06,56,13.10
2010,08,12,06,57,13.10
2010,08,12,06,58,13.00
2010,08,12,06,59,13.00
2010,08,12,07,00,13.00
2010,08,12,07,01,13.00
2010,08,12,07,02,13.00
2010,08,12,07,03,13.00
2010,08,12,07,04,13.10
2010,08,12,07,05,13.10
2010,08,12,07,06,13.10
2010,08,12,07,07,13.20
2010,08,12,07,08,13.30
2010,08,12,07,09,13.30
2010,08,12,07,10,13.40
2010,08,12,07,11,13.40
2010,08,12,07,12,13.50
2010,08,12,07,13,13.60
2010,08,12,07,14,13.60
2010,08,12,07,15,13.70
2010,08,12,07,16,13.80
2010,08,12,07,17,13.80
2010,08,12,07,18,13.90
2010,08,12,07,19,14.00
2010,08,12,07,20,14.10
2010,08,12,07,21,14.20
2010,08,12,07,22,14.30
2010,08,12,07,23,14.40
2010,08,12,07,24,14.40
2010,08,12,07,25,14.50
2010,08,12,07,26,14.60
2010,08,12,07,27,14.70
2010,08,12,07,28,14.90
2010,08,12,07,29,15.00
2010,08,12,07,30,15.00
2010,08,12,07,31,15.10
2010,08,12,07,32,15.30
2010,08,12,07,33,15.40
2010,08,12,07,34,15.60
2010,08,12,07,35,15.70
2010,08,12,07,36,15.90
2010,08,12,07,37,16.00
2010,08,12,07,38,16.20
2010,08,12,07,39,16.30
2010,08,12,07,40,16.40
2010,08,12,07,41,16.50
2010,08,12,07,42,16.70
2010,08,12,07,43,16.80
2010,08,12,07,44,16.90
2010,08,12,07,45,17.00
2010,08,12,07,46,17.10
2010,08,12,07,47,17.20
2010,08,12,07,48,17.30
2010,08,12,07,49,17.40
2010,08,12,07,50,17.50
2010,08,12,07,51,17.60
2010,08,12,07,52,17.70
2010,08,12,07,53,17.80
2010,08,12,07,54,17.90
2010,08,12,07,55,18.00
2010,08,12,07,56,18.10
2010,08,12,07,57,18.20
2010,08,12,07,58,18.30
2010,08,12,07,59,18.30
2010,08,12,08,00,18.40
2010,08,12,08,01,18.40
2010,08,12,08,02,18.40
2010,08,12,08,03,18.40
2010,08,12,08,04,18.40
2010,08,12,08,05,18.40
2010,08,12,08,06,18.30
2010,08,12,08,07,18.30
2010,08,12,08,08,18.30
2010,08,12,08,09,18.30
2010,08,12,08,10,18.20
2010,08,12,08,11,18.20
2010,08,12,08,12,18.20
2010,08,12,08,13,18.20
2010,08,12,08,14,18.20
2010,08,12,08,15,18.20
2010,08,12,08,16,18.20
2010,08,12,08,17,18.20
2010,08,12,08,18,18.20
2010,08,12,08,19,18.20
2010,08,12,08,20,18.20
2010,08,12,08,21,18.20
2010,08,12,08,22,18.20
2010,08,12,08,23,18.20
2010,08,12,08,24,18.20
2010,08,12,08,25,18.20
2010,08,12,08,26,18.20
2010,08,12,08,27,18.20
2010,08,12,08,28,18.20
2010,08,12,08,29,18.20
2010,08,12,08,30,18.20
2010,08,12,08,31,18.30
2010,08,12,08,32,18.30
2010,08,12,08,33,18.40
2010,08,12,08,34,18.40
2010,08,12,08,35,18.50
2010,08,12,08,36,18.60
2010,08,12,08,37,18.60
2010,08,12,08,38,18.60
2010,08,12,08,39,18.70
2010,08,12,08,40,18.60
2010,08,12,08,41,18.60
2010,08,12,08,42,18.60
2010,08,12,08,43,18.60
2010,08,12,08,44,18.60
2010,08,12,08,45,18.60
2010,08,12,08,46,18.60
2010,08,12,08,47,18.70
2010,08,12,08,48,18.70
2010,08,12,08,49,18.80
2010,08,12,08,50,18.80
2010,08,12,08,51,18.80
2010,08,12,08,52,18.70
2010,08,12,08,53,18.50
2010,08,12,08,54,18.30
2010,08,12,08,55,18.20
2010,08,12,08,56,18.10
2010,08,12,08,57,18.00
2010,08,12,08,58,17.90
2010,08,12,08,59,17.90
2010,08,12,09,00,17.80
2010,08,12,09,01,17.80
2010,08,12,09,02,17.80
2010,08,12,09,03,17.80
2010,08,12,09,04,17.90
2010,08,12,09,05,17.90
2010,08,12,09,06,17.80
2010,08,12,09,07,17.80
2010,08,12,09,08,17.70
2010,08,12,09,09,17.70
2010,08,12,09,10,17.60
2010,08,12,09,11,17.60
2010,08,12,09,12,17.70
2010,08,12,09,13,17.70
2010,08,12,09,14,17.70
2010,08,12,09,15,17.80
2010,08,12,09,16,17.80
2010,08,12,09,17,17.80
2010,08,12,09,18,17.80
2010,08,12,09,19,17.80
2010,08,12,09,20,17.90
2010,08,12,09,21,17.80
2010,08,12,09,22,17.80
2010,08,12,09,23,17.80
2010,08,12,09,24,17.70
2010,08,12,09,25,17.70
2010,08,12,09,26,17.70
2010,08,12,09,27,17.80
2010,08,12,09,28,17.80
2010,08,12,09,29,17.80
2010,08,12,09,30,17.80
2010,08,12,09,31,17.80
2010,08,12,09,32,17.80
2010,08,12,09,33,17.80
2010,08,12,09,34,17.80
2010,08,12,09,35,17.80
2010,08,12,09,36,17.90
2010,08,12,09,37,18.00
2010,08,12,09,38,18.00
2010,08,12,09,39,18.00
2010,08,12,09,40,18.10
2010,08,12,09,41,18.00
2010,08,12,09,42,18.00
2010,08,12,09,43,18.10
2010,08,12,09,44,18.10
2010,08,12,09,45,18.20
2010,08,12,09,46,18.20
2010,08,12,09,47,18.20
2010,08,12,09,48,18.20
2010,08,12,09,49,18.30
2010,08,12,09,50,18.30
2010,08,12,09,51,18.40
2010,08,12,09,52,18.40
2010,08,12,09,53,18.50
2010,08,12,09,54,18.50
2010,08,12,09,55,18.50
2010,08,12,09,56,18.50
2010,08,12,09,57,18.50
2010,08,12,09,58,18.60
2010,08,12,09,59,18.60
2010,08,12,10,00,18.60
2010,08,12,10,01,18.60
2010,08,12,10,02,18.60
2010,08,12,10,03,18.70
2010,08,12,10,04,18.70
2010,08,12,10,05,18.80
2010,08,12,10,06,18.80
2010,08,12,10,07,18.80
2010,08,12,10,08,18.90
2010,08,12,10,09,19.00
2010,08,12,10,10,19.00
2010,08,12,10,11,19.10
2010,08,12,10,12,19.10
2010,08,12,10,13,19.10
2010,08,12,10,14,19.10
2010,08,12,10,15,19.20
2010,08,12,10,16,19.30
2010,08,12,10,17,19.30
2010,08,12,10,18,19.40
2010,08,12,10,19,19.30
2010,08,12,10,20,19.30
2010,08,12,10,21,19.30
2010,08,12,10,22,19.20
2010,08,12,10,23,19.20
2010,08,12,10,24,19.20
2010,08,12,10,25,19.20
2010,08,12,10,26,19.20
2010,08,12,10,27,19.20
2010,08,12,10,28,19.10
2010,08,12,10,29,19.10
2010,08,12,10,30,19.10
2010,08,12,10,31,19.00
2010,08,12,10,32,19.00
2010,08,12,10,33,19.00
2010,08,12,10,34,18.90
2010,08,12,10,35,18.90
2010,08,12,10,36,18.90
2010,08,12,10,37,18.90
2010,08,12,10,38,18.90
2010,08,12,10,39,18.90
2010,08,12,10,40,19.00
2010,08,12,10,41,19.00
2010,08,12,10,42,19.00
2010,08,12,10,43,19.00
2010,08,12,10,44,19.00
2010,08,12,10,45,19.00
2010,08,12,10,46,19.00
2010,08,12,10,47,19.10
2010,08,12,10,48,19.20
2010,08,12,10,49,19.20
2010,08,12,10,50,19.20
2010,08,12,10,51,19.30
2010,08,12,10,52,19.30
2010,08,12,10,53,19.20
2010,08,12,10,54,19.20
2010,08,12,10,55,19.10
2010,08,12,10,56,19.00
2010,08,12,10,57,18.90
2010,08,12,10,58,18.80
2010,08,12,10,59,18.80
2010,08,12,11,00,18.80
2010,08,12,11,01,18.80
2010,08,12,11,02,18.80
2010,08,12,11,03,18.80
2010,08,12,11,04,18.90
2010,08,12,11,05,18.90
2010,08,12,11,06,18.90
2010,08,12,11,07,18.90
2010,08,12,11,08,18.90
2010,08,12,11,09,18.90
2010,08,12,11,10,18.90
2010,08,12,11,11,18.90
2010,08,12,11,12,18.90
2010,08,12,11,13,18.90
2010,08,12,11,14,18.90
2010,08,12,11,15,18.90
2010,08,12,11,16,18.80
2010,08,12,11,17,18.80
2010,08,12,11,18,18.70
2010,08,12,11,19,18.70
2010,08,12,11,20,18.60
2010,08,12,11,21,18.50
2010,08,12,11,22,18.50
2010,08,12,11,23,18.50
2010,08,12,11,24,18.50
2010,08,12,11,25,18.60
2010,08,12,11,26,18.60
2010,08,12,11,27,18.70
2010,08,12,11,28,18.70
2010,08,12,11,29,18.70
2010,08,12,11,30,18.70
2010,08,12,11,31,18.70
2010,08,12,11,32,18.70
2010,08,12,11,33,18.80
2010,08,12,11,34,18.90
2010,08,12,11,35,18.90
2010,08,12,11,36,18.80
2010,08,12,11,37,18.90
2010,08,12,11,38,18.80
2010,08,12,11,39,18.80
2010,08,12,11,40,18.80
2010,08,12,11,41,18.80
2010,08,12,11,42,18.70
2010,08,12,11,43,18.80
2010,08,12,11,44,18.80
2010,08,12,11,45,18.70
2010,08,12,11,46,18.70
2010,08,12,11,47,18.80
2010,08,12,11,48,18.80
2010,08,12,11,49,18.80
2010,08,12,11,50,18.90
2010,08,12,11,51,18.90
2010,08,12,11,52,19.00
2010,08,12,11,53,19.10
2010,08,12,11,54,19.10
2010,08,12,11,55,19.10
2010,08,12,11,56,19.10
2010,08,12,11,57,19.10
2010,08,12,11,58,19.00
2010,08,12,11,59,18.90
2010,08,12,12,00,18.90
2010,08,12,12,01,18.90
2010,08,12,12,02,19.00
2010,08,12,12,03,19.10
2010,08,12,12,04,19.10
2010,08,12,12,05,19.10
2010,08,12,12,06,19.10
2010,08,12,12,07,19.10
2010,08,12,12,08,19.10
2010,08,12,12,09,19.10
2010,08,12,12,10,19.10
2010,08,12,12,11,19.20
2010,08,12,12,12,19.20
2010,08,12,12,13,19.10
2010,08,12,12,14,19.10
2010,08,12,12,15,19.20
2010,08,12,12,16,19.20
2010,08,12,12,17,19.10
2010,08,12,12,18,19.10
2010,08,12,12,19,19.00
2010,08,12,12,20,18.80
2010,08,12,12,21,18.80
2010,08,12,12,22,18.90
2010,08,12,12,23,18.90
2010,08,12,12,24,19.00
2010,08,12,12,25,19.10
2010,08,12,12,26,19.10
2010,08,12,12,27,19.20
2010,08,12,12,28,19.30
2010,08,12,12,29,19.40
2010,08,12,12,30,19.50
2010,08,12,12,31,19.40
2010,08,12,12,32,19.30
2010,08,12,12,33,19.30
2010,08,12,12,34,19.30
2010,08,12,12,35,19.30
2010,08,12,12,36,19.30
2010,08,12,12,37,19.30
2010,08,12,12,38,19.20
2010,08,12,12,39,19.20
2010,08,12,12,40,19.20
2010,08,12,12,41,19.20
2010,08,12,12,42,19.20
2010,08,12,12,43,19.30
2010,08,12,12,44,19.30
2010,08,12,12,45,19.40
2010,08,12,12,46,19.40
2010,08,12,12,47,19.40
2010,08,12,12,48,19.40
2010,08,12,12,49,19.40
2010,08,12,12,50,19.30
2010,08,12,12,51,19.30
2010,08,12,12,52,19.20
2010,08,12,12,53,19.20
2010,08,12,12,54,19.20
2010,08,12,12,55,19.20
2010,08,12,12,56,19.30
2010,08,12,12,57,19.30
2010,08,12,12,58,19.30
2010,08,12,12,59,19.30
2010,08,12,13,00,19.30
2010,08,12,13,01,19.20
2010,08,12,13,02,19.20
2010,08,12,13,03,19.10
2010,08,12,13,04,19.00
2010,08,12,13,05,19.00
2010,08,12,13,06,19.00
2010,08,12,13,07,19.00
2010,08,12,13,08,18.90
2010,08,12,13,09,18.80
2010,08,12,13,10,18.80
2010,08,12,13,11,18.80
2010,08,12,13,12,18.90
2010,08,12,13,13,18.90
2010,08,12,13,14,18.90
2010,08,12,13,15,18.90
2010,08,12,13,16,18.90
2010,08,12,13,17,19.00
2010,08,12,13,18,19.00
2010,08,12,13,19,18.90
2010,08,12,13,20,18.90
2010,08,12,13,21,18.80
2010,08,12,13,22,18.80
2010,08,12,13,23,18.80
2010,08,12,13,24,18.90
2010,08,12,13,25,19.00
2010,08,12,13,26,19.10
2010,08,12,13,27,19.20
2010,08,12,13,28,19.20
2010,08,12,13,29,19.30
2010,08,12,13,30,19.40
2010,08,12,13,31,19.50
2010,08,12,13,32,19.50
2010,08,12,13,33,19.50
2010,08,12,13,34,19.40
2010,08,12,13,35,19.40
2010,08,12,13,36,19.40
2010,08,12,13,37,19.50
2010,08,12,13,38,19.50
2010,08,12,13,39,19.60
2010,08,12,13,40,19.60
2010,08,12,13,41,19.60
2010,08,12,13,42,19.60
2010,08,12,13,43,19.60
2010,08,12,13,44,19.70
2010,08,12,13,45,19.70
2010,08,12,13,46,19.70
2010,08,12,13,47,19.80
2010,08,12,13,48,19.80
2010,08,12,13,49,19.80
2010,08,12,13,50,19.80
2010,08,12,13,51,19.80
2010,08,12,13,52,19.70
2010,08,12,13,53,19.70
2010,08,12,13,54,19.70
2010,08,12,13,55,19.70
2010,08,12,13,56,19.70
2010,08,12,13,57,19.70
2010,08,12,13,58,19.70
2010,08,12,13,59,19.70
2010,08,12,14,00,19.70
2010,08,12,14,01,19.70
2010,08,12,14,02,19.70
2010,08,12,14,03,19.80
2010,08,12,14,04,19.90
2010,08,12,14,05,20.00
2010,08,12,14,06,20.00
2010,08,12,14,07,20.00
2010,08,12,14,08,20.10
2010,08,12,14,09,20.10
2010,08,12,14,10,20.10
2010,08,12,14,11,20.10
2010,08,12,14,12,20.20
2010,08,12,14,13,20.20
2010,08,12,14,14,20.20
2010,08,12,14,15,20.30
2010,08,12,14,16,20.30
2010,08,12,14,17,20.30
2010,08,12,14,18,20.40
2010,08,12,14,19,20.40
2010,08,12,14,20,20.40
2010,08,12,14,21,20.40
2010,08,12,14,22,20.40
2010,08,12,14,23,20.40
2010,08,12,14,24,20.50
2010,08,12,14,25,20.60
2010,08,12,14,26,20.70
2010,08,12,14,27,20.80
2010,08,12,14,28,20.80
2010,08,12,14,29,20.80
2010,08,12,14,30,20.90
2010,08,12,14,31,21.10
2010,08,12,14,32,21.10
2010,08,12,14,33,21.20
2010,08,12,14,34,21.20
2010,08,12,14,35,21.30
2010,08,12,14,36,21.40
2010,08,12,14,37,21.40
2010,08,12,14,38,21.30
2010,08,12,14,39,21.20
2010,08,12,14,40,21.10
2010,08,12,14,41,21.00
2010,08,12,14,42,20.90
2010,08,12,14,43,20.90
2010,08,12,14,44,20.90
2010,08,12,14,45,21.00
2010,08,12,14,46,21.00
2010,08,12,14,47,21.10
2010,08,12,14,48,21.10
2010,08,12,14,49,21.20
2010,08,12,14,50,21.30
2010,08,12,14,51,21.40
2010,08,12,14,52,21.50
2010,08,12,14,53,21.60
2010,08,12,14,54,21.70
2010,08,12,14,55,21.60
2010,08,12,14,56,21.60
2010,08,12,14,57,21.70
2010,08,12,14,58,21.70
2010,08,12,14,59,21.80
2010,08,12,15,00,21.80
2010,08,12,15,01,21.70
2010,08,12,15,02,21.70
2010,08,12,15,03,21.60
2010,08,12,15,04,21.60
2010,08,12,15,05,21.50
2010,08,12,15,06,21.40
2010,08,12,15,07,21.30
2010,08,12,15,08,21.30
2010,08,12,15,09,21.30
2010,08,12,15,10,21.20
2010,08,12,15,11,21.10
2010,08,12,15,12,21.00
2010,08,12,15,13,21.00
2010,08,12,15,14,21.10
2010,08,12,15,15,21.10
2010,08,12,15,16,21.10
2010,08,12,15,17,21.20
2010,08,12,15,18,21.10
2010,08,12,15,19,21.10
2010,08,12,15,20,21.10
2010,08,12,15,21,21.10
2010,08,12,15,22,21.00
2010,08,12,15,23,20.90
2010,08,12,15,24,20.90
2010,08,12,15,25,21.00
2010,08,12,15,26,21.00
2010,08,12,15,27,21.10
2010,08,12,15,28,21.10
2010,08,12,15,29,21.20
2010,08,12,15,30,21.20
2010,08,12,15,31,21.30
2010,08,12,15,32,21.30
2010,08,12,15,33,21.30
2010,08,12,15,34,21.30
2010,08,12,15,35,21.30
2010,08,12,15,36,21.30
2010,08,12,15,37,21.40
2010,08,12,15,38,21.50
2010,08,12,15,39,21.50
2010,08,12,15,40,21.60
2010,08,12,15,41,21.60
2010,08,12,15,42,21.60
2010,08,12,15,43,21.60
2010,08,12,15,44,21.60
2010,08,12,15,45,21.60
2010,08,12,15,46,21.60
2010,08,12,15,47,21.60
2010,08,12,15,48,21.70
2010,08,12,15,49,21.70
2010,08,12,15,50,21.70
2010,08,12,15,51,21.70
2010,08,12,15,52,21.70
2010,08,12,15,53,21.50
2010,08,12,15,54,21.50
2010,08,12,15,55,21.50
2010,08,12,15,56,21.40
2010,08,12,15,57,21.40
2010,08,12,15,58,21.40
2010,08,12,15,59,21.40
2010,08,12,16,00,21.40
2010,08,12,16,01,21.50
2010,08,12,16,02,21.60
2010,08,12,16,03,21.70
2010,08,12,16,04,21.70
2010,08,12,16,05,21.80
2010,08,12,16,06,21.90
2010,08,12,16,07,22.00
2010,08,12,16,08,22.10
2010,08,12,16,09,22.10
2010,08,12,16,10,22.20
2010,08,12,16,11,22.20
2010,08,12,16,12,22.20
2010,08,12,16,13,22.20
2010,08,12,16,14,22.10
2010,08,12,16,15,22.10
2010,08,12,16,16,22.10
2010,08,12,16,17,22.10
2010,08,12,16,18,22.10
2010,08,12,16,19,22.10
2010,08,12,16,20,22.10
2010,08,12,16,21,22.10
2010,08,12,16,22,22.10
2010,08,12,16,23,22.10
2010,08,12,16,24,22.20
2010,08,12,16,25,22.30
2010,08,12,16,26,22.40
2010,08,12,16,27,22.50
2010,08,12,16,28,22.50
2010,08,12,16,29,22.50
2010,08,12,16,30,22.50
2010,08,12,16,31,22.50
2010,08,12,16,32,22.50
2010,08,12,16,33,22.40
2010,08,12,16,34,22.40
2010,08,12,16,35,22.30
2010,08,12,16,36,22.30
2010,08,12,16,37,22.40
2010,08,12,16,38,22.40
2010,08,12,16,39,22.40
2010,08,12,16,40,22.40
2010,08,12,16,41,22.40
2010,08,12,16,42,22.40
2010,08,12,16,43,22.40
2010,08,12,16,44,22.50
2010,08,12,16,45,22.60
2010,08,12,16,46,22.60
2010,08,12,16,47,22.60
2010,08,12,16,48,22.60
2010,08,12,16,49,22.60
2010,08,12,16,50,22.60
2010,08,12,16,51,22.50
2010,08,12,16,52,22.40
2010,08,12,16,53,22.50
2010,08,12,16,54,22.60
2010,08,12,16,55,22.60
2010,08,12,16,56,22.70
2010,08,12,16,57,22.80
2010,08,12,16,58,22.80
2010,08,12,16,59,22.80
2010,08,12,17,00,22.80
2010,08,12,17,01,22.80
2010,08,12,17,02,22.80
2010,08,12,17,03,22.80
2010,08,12,17,04,22.80
2010,08,12,17,05,22.80
2010,08,12,17,06,22.90
2010,08,12,17,07,22.90
2010,08,12,17,08,23.00
2010,08,12,17,09,23.00
2010,08,12,17,10,23.00
2010,08,12,17,11,23.00
2010,08,12,17,12,23.00
2010,08,12,17,13,23.10
2010,08,12,17,14,23.10
2010,08,12,17,15,23.10
2010,08,12,17,16,23.10
2010,08,12,17,17,23.10
2010,08,12,17,18,23.10
2010,08,12,17,19,23.00